"Pseudo-MPEC" for P117Z5V

Created 2020 Oct 21 7:07:25 UT using Find_Orb

Click here for an explanation of pseudo-MPECs

 
 Astrometry: 
     P117Z5V  C2020 10 15y5JmalsAstrometryA=qQRnOn;hredacted;uQ\g1BO%-,ji-CXWF51
     P117Z5V  C2020 10 156@Jd;A5ms;;#/Vk*-MqrI!wVaAEnX%/xOs9pb`D#!G31l=s?ikCDF51
     P117Z5V  C2020 10 15Cy+dyS)WXlUbeH2M/V*0W=vI5oC$`fH]e-H`+uwPS9CbIML'EH*ZF51
     P117Z5V ^C2020 10 19.57922902 40 59.137+20 04 46.21   ~AJJ7 22.20GVNEOCP568
     P117Z5V ^C2020 10 19.58017602 40 59.099+20 04 46.88   ~AJJ7 22.22GVNEOCP568
     P117Z5V ^C2020 10 19.58112302 40 59.067+20 04 47.61   ~AJJ7 22.34GVNEOCP568
     P117Z5V  C2020 10 20q'8Xm:;3G=Q-MKSWclick,I0yFhereLHNforS)sUh-MoE_c_TP,rF52
     P117Z5V  C2020 10 20[mNb\@$+*#R1d/S?w`lG+QdD,:PXuC`^;BXtNwZM#`kg9eSWe^cOF52
     P117Z5V  C2020 10 20(Ii2[?/AWexplanation$d5xl+PL3-f$tYi92!XJ.,gQHJ'i'+-pF52

Station data:
(568) Mauna Kea  (N19.826116 W155.472200)  US/Hawaii.
(F51) Pan-STARRS 1, Haleakala  (N20.707235 W156.255910)  US/Hawaii.
   Observers N. Primak, A. Schultz, S. Watters, J. Thiel, T. Goggia. Measurer
   PS1 Science Consortium. 1.8-m Ritchey-Chrétien + CCD.
(F52) Pan-STARRS 2, Haleakala  (N20.707384 W156.255910)  US/Hawaii. 1.8-m
   Ritchey-Chrétien + CCD.

Orbital elements:  P117Z5V
   Perihelion 2020 Oct 27.552682 +/- 1.1 TT = 13:15:51 (JD 2459150.052682)
Epoch 2020 Oct 20.0 TT = JDT 2459142.5   Earth MOID: 0.5497   AutoNEOCP
M 358.19463333 +/- 0.27             (J2000 ecliptic)
n   0.23903649 +/- 0.00506          Peri.   16.15253 +/- 0.6
a   2.57134238 +/- 0.0363           Node    21.54274 +/- 0.11
e   0.4005503 +/- 0.00574           Incl.    7.90811 +/- 0.10
P   4.12                   H 22.0   G  0.15   U  9.2  
q 1.54139030 +/- 0.00723    Q 3.60129445 +/- 0.0667
From 9 observations 2020 Oct. 15-20; mean residual 0".07
Residuals in arcseconds: 
201015 F51  .06+  .04+    201019 568  .02+  .01+    201020 F52  .07-  .09+    
201015 F51  .07-  .01+    201019 568  .02-  .02-    201020 F52  .12-  .06-    
201015 F51  .01+  .05-    201019 568  .02+  .01+    201020 F52  .18+  .03-    

Ephemerides (geocentric):
Date (UTC) HH   RA              Dec         delta   r     elong  mag " sig PA
---- -- -- --  -------------   -----------  ------ ------ -----  --- ---- ---
2020 10 21 07  02 40 02.506   +20 26 17.09  .56185 1.5424 163.5 22.4 .525  60
2020 10 21 08  02 40 01.049   +20 26 48.18  .56178 1.5424 163.5 22.4 .552  60
2020 10 21 09  02 39 59.590   +20 27 19.25  .56171 1.5423 163.6 22.4 .580  60
2020 10 21 10  02 39 58.128   +20 27 50.31  .56163 1.5423 163.6 22.4 .609  61
2020 10 21 11  02 39 56.663   +20 28 21.36  .56156 1.5423 163.6 22.4 .637  61
2020 10 21 12  02 39 55.195   +20 28 52.39  .56149 1.5423 163.7 22.4 .666  61
2020 10 21 13  02 39 53.725   +20 29 23.41  .56142 1.5423 163.7 22.4 .695  61
2020 10 21 14  02 39 52.252   +20 29 54.41  .56134 1.5423 163.8 22.4 .724  61
2020 10 21 15  02 39 50.775   +20 30 25.40  .56127 1.5423 163.8 22.4 .754  61
2020 10 21 16  02 39 49.297   +20 30 56.38  .56120 1.5423 163.8 22.4 .784  61
2020 10 21 17  02 39 47.815   +20 31 27.34  .56113 1.5422 163.9 22.4 .815  61
2020 10 21 18  02 39 46.331   +20 31 58.28  .56106 1.5422 163.9 22.4 .845  61
2020 10 21 19  02 39 44.844   +20 32 29.21  .56099 1.5422 164.0 22.4 .876  61
2020 10 21 20  02 39 43.354   +20 33 00.13  .56092 1.5422 164.0 22.4 .908  61
2020 10 21 21  02 39 41.861   +20 33 31.03  .56085 1.5422 164.0 22.4 .939  61
2020 10 21 22  02 39 40.366   +20 34 01.92  .56078 1.5422 164.1 22.4 .971  61
2020 10 21 23  02 39 38.868   +20 34 32.79  .56071 1.5422 164.1 22.4 1.00  61
2020 10 22 00  02 39 37.367   +20 35 03.64  .56064 1.5422 164.1 22.4 1.04  61
2020 10 22 01  02 39 35.864   +20 35 34.49  .56057 1.5421 164.2 22.4 1.07  62
2020 10 22 02  02 39 34.357   +20 36 05.31  .56050 1.5421 164.2 22.4 1.10  62
2020 10 22 03  02 39 32.849   +20 36 36.12  .56044 1.5421 164.3 22.4 1.14  62
2020 10 22 04  02 39 31.337   +20 37 06.92  .56037 1.5421 164.3 22.4 1.17  62
2020 10 22 05  02 39 29.823   +20 37 37.70  .56030 1.5421 164.3 22.4 1.20  62
2020 10 22 06  02 39 28.306   +20 38 08.47  .56023 1.5421 164.4 22.4 1.24  62
2020 10 22 07  02 39 26.787   +20 38 39.22  .56017 1.5421 164.4 22.4 1.27  62
2020 10 22 08  02 39 25.265   +20 39 09.96  .56010 1.5421 164.5 22.4 1.31  62
2020 10 22 09  02 39 23.740   +20 39 40.68  .56003 1.5421 164.5 22.3 1.34  62
2020 10 22 10  02 39 22.213   +20 40 11.39  .55997 1.5420 164.5 22.3 1.38  62
2020 10 22 11  02 39 20.683   +20 40 42.08  .55990 1.5420 164.6 22.3 1.41  62
2020 10 22 12  02 39 19.150   +20 41 12.75  .55984 1.5420 164.6 22.3 1.45  62
2020 10 22 13  02 39 17.615   +20 41 43.41  .55977 1.5420 164.7 22.3 1.49  62
2020 10 22 14  02 39 16.077   +20 42 14.06  .55971 1.5420 164.7 22.3 1.52  62
2020 10 22 15  02 39 14.537   +20 42 44.69  .55964 1.5420 164.7 22.3 1.56  62
2020 10 22 16  02 39 12.994   +20 43 15.30  .55958 1.5420 164.8 22.3 1.60  62
2020 10 22 17  02 39 11.448   +20 43 45.90  .55952 1.5420 164.8 22.3 1.63  62
2020 10 22 18  02 39 09.900   +20 44 16.49  .55945 1.5420 164.9 22.3 1.67  62
2020 10 22 19  02 39 08.350   +20 44 47.06  .55939 1.5420 164.9 22.3 1.71  62
2020 10 22 20  02 39 06.797   +20 45 17.61  .55933 1.5419 164.9 22.3 1.75  62
2020 10 22 21  02 39 05.241   +20 45 48.15  .55926 1.5419 165.0 22.3 1.79  62
2020 10 22 22  02 39 03.683   +20 46 18.67  .55920 1.5419 165.0 22.3 1.83  62
2020 10 22 23  02 39 02.122   +20 46 49.17  .55914 1.5419 165.0 22.3 1.86  62
2020 10 23 00  02 39 00.559   +20 47 19.66  .55908 1.5419 165.1 22.3 1.90  62
2020 10 23 01  02 38 58.993   +20 47 50.14  .55902 1.5419 165.1 22.3 1.94  62
2020 10 23 02  02 38 57.425   +20 48 20.60  .55896 1.5419 165.2 22.3 1.98  62
2020 10 23 03  02 38 55.854   +20 48 51.04  .55890 1.5419 165.2 22.3 2.02  62
2020 10 23 04  02 38 54.281   +20 49 21.47  .55884 1.5419 165.2 22.3 2.07  62
2020 10 23 05  02 38 52.706   +20 49 51.88  .55878 1.5419 165.3 22.3 2.11  62
2020 10 23 06  02 38 51.128   +20 50 22.28  .55872 1.5419 165.3 22.3 2.15  62